Content
SEND FEEDBACK

Daily
Averages
Monthly
Summary
United States of America

ENTERPRISE, ALABAMA


Home > North America > United States > Alabama
Elevation: 298 feet     Latitude: 31 17N     Longitude: 085 43W

WEATHER
 
SELECT A DAY
Number of Records: 63,292;   Date Range: 2/10/98 - 7/29/14
 
SHARE

PRINT THIS DATA

[ ← Previous Day ]
WEATHER ALMANAC - APRIL 1, 2014
[ Next Day → ]
[ °C ]   °F
Weather ElementAverageHighLow
Temperature61.6 °F80.1 °F (3:53 pm)41 °F (4:53 am)
Dewpoint40.5 °F48 °F (8:53 am)35.1 °F (5:53 pm)
Humidity54.5 %93 % (4:53 am)21 % (5:53 pm)
Barometer30.12 in30.18 in (7:53 am)30.07 in (4:53 pm)
Wind Speed4 mph10.4 mph (11:53 am)
Weather ElementAverage
Visibility9.8 mi
Wind DirectionESE (104.8 °)

Weather ElementTotal
Precipitation---
Heating Degree Days4.5 (Base 65)
Growing Degree Days10.6 (Base 50)
Averaged from 23 records on April 1, 2014
WEATHER CONDITIONS BREAKOUT
WIND DIRECTION BREAKOUT
WEATHER BY HOUR - APRIL 1, 2014
[ °C ]   °F
Local TimeTemperatureDewpointHumidityBarometerVisibilityWind DirectionWind SpeedGust SpeedPrecipitationEventsConditions
1:53 AM44.1 °F41.0 °F89 %30.13 in10.0 miCalmClear
2:53 AM43.0 °F39.9 °F89 %30.11 in10.0 miCalmClear
3:53 AM43.0 °F39.9 °F89 %30.11 in10.0 miCalmClear
4:53 AM41.0 °F39.0 °F93 %30.12 in8.0 miCalmClear
5:53 AM41.0 °F39.0 °F93 %30.14 in10.0 miCalmClear
6:53 AM41.0 °F39.0 °F93 %30.16 in7.0 miCalmClear
7:53 AM46.9 °F43.0 °F86 %30.18 in10.0 miCalmClear
8:53 AM55.9 °F48.0 °F75 %30.18 in10.0 miCalmClear
9:53 AM66.0 °F46.9 °F50 %30.15 in10.0 miVariable3.5 mphClear
10:53 AM70.0 °F39.0 °F32 %30.17 in10.0 miWest (280°)6.9 mphClear
11:53 AM73.9 °F37.9 °F27 %30.16 in10.0 miWSW (240°)10.4 mphClear
12:53 PM75.9 °F39.0 °F26 %30.14 in10.0 miSSE (160°)8.1 mphClear
1:53 PM78.1 °F36.0 °F22 %30.11 in10.0 miVariable3.5 mphClear
2:53 PM79.0 °F37.9 °F23 %30.09 in10.0 miWSW (240°)6.9 mphClear
3:53 PM80.1 °F39.9 °F24 %30.08 in10.0 miSSW (210°)6.9 mphClear
4:53 PM80.1 °F37.9 °F22 %30.07 in10.0 miSouth (190°)10.4 mphClear
5:53 PM78.1 °F35.1 °F21 %30.07 in10.0 miSW (230°)9.2 mphClear
6:53 PM73.0 °F35.1 °F25 %30.09 in10.0 miSW (220°)8.1 mphClear
7:53 PM68.0 °F35.1 °F30 %30.10 in10.0 miSSW (210°)8.1 mphClear
8:53 PM64.0 °F42.1 °F45 %30.12 in10.0 miSW (220°)5.8 mphClear
9:53 PM60.1 °F45.0 °F57 %30.13 in10.0 miSSW (210°)4.6 mphClear
10:53 PM57.9 °F46.9 °F67 %30.13 in10.0 miCalmClear
11:53 PM55.9 °F48.0 °F75 %30.12 in10.0 miCalmPartly Cloudy
Hourly data recorded from KLOR, located miles away from Enterprise, Alabama







STORIES FROM OUR PARTNERS